Location: Goldmont Forest
(38.0233°N, 120.2524°W)
Time: 09:09:40
(UTC+00:00)

IRIDIUM 106 - Pass Details

Date: 09 November 2024
Orbit: 776 x 779 km, 86.4° (Epoch: 06 December)

Event Time Altitude Azimuth Distance (km) Brightness Sun altitude
Rises 02:08:18 0° 150° (SSE) 3,247 7.4 -14.9°
Reaches altitude 10° 02:10:58 10° 138° (SE) 2,324 6.5 -15.4°
Maximum altitude 02:15:14 26° 83° (E) 1,483 5.2 -16.2°
Enters shadow 02:15:22 26° 80° (E) 1,484 5.2 -16.2°
Exits shadow 02:21:13 - 19° (NNE) 2,916 7.0 -17.4°
Sets 02:22:11 0° 16° (NNE) 3,268 7.3 -17.6°
